{"data":{"norad_id":57966,"epoch":"2026-09-19T04:46:05.080224Z","epoch_age_seconds":250092,"freshness":"STALE","line1":"1 57966U 23151C   26262.19866991  .00001129  00000+0  50558-4 0  9991","line2":"2 57966  43.0040 322.9564 0001371 267.3816  92.6878 15.27577088165363","mean_motion":15.27577088,"eccentricity":0.0001371,"inclination_deg":43.004,"raan_deg":322.9564,"arg_perigee_deg":267.3816,"mean_anomaly_deg":92.6878,"bstar":5.0558e-5,"rev_number":16536,"period_min":94.266928413108,"perigee_km":482.11714581987,"apogee_km":483.99848543831,"semimajor_km":6861.1948156291,"source":"CELESTRAK","updated_at":"2026-09-21T09:00:33.748917Z"}}